GPS BIII-4 (PRN 14)

Last updated on July 5, 2021, 2:29 p.m. UTC

1 46826U 20078A   21184.92744397 -.00000064  00000-0  00000-0 0  9995
2 46826  54.8098 284.2229 0007810 178.6960 181.3362  2.00554301  5227
UTC
Height (km)
Latitude
Longitude
Inclination
Orbital Period
UTC large
Height (km)
Speed (km/s)
/
Latitude / Longitude
Inclination (degrees)
Orbital Period (minutes)
Azimuth
Elevation
Range (km)
Doppler Factor
iOS Compass Heading
iOS Angle